| time (UTC) | temp F | wind direction | speed MPH | gust MPH | rain 1hr in | rain 24hr in | rain mn in | humidity % | barometer mb |
| 20260506163046 | 50 | 0 | 0.0 | 0.0 | 0.00 | 0.52 | 0.52 | 93 | 1010.3 |
| 20260506161549 | 50 | 41 | 0.0 | 4.0 | 0.00 | 0.52 | 0.52 | 93 | 1010.2 |
| 20260506160037 | 50 | 252 | 0.0 | 2.0 | 0.00 | 0.52 | 0.52 | 94 | 1010.0 |
| 20260506154544 | 50 | 0 | 0.0 | 3.0 | 0.00 | 0.52 | 0.52 | 94 | 1010.0 |
| 20260506153043 | 50 | 0 | 0.0 | 2.0 | 0.00 | 0.52 | 0.52 | 95 | 1009.6 |
| 20260506151540 | 50 | 0 | 0.0 | 0.0 | 0.00 | 0.52 | 0.52 | 96 | 1009.4 |
| 20260506150038 | 49 | 0 | 0.0 | 3.0 | 0.00 | 0.52 | 0.52 | 95 | 1009.3 |
| 20260506144538 | 49 | 0 | 0.0 | 1.0 | 0.00 | 0.52 | 0.52 | 96 | 1009.0 |
| 20260506143042 | 49 | 0 | 0.0 | 1.0 | 0.00 | 0.52 | 0.52 | 96 | 1008.7 |
| 20260506141539 | 49 | 0 | 0.0 | 2.0 | 0.01 | 0.52 | 0.52 | 96 | 1008.6 |
| 20260506140045 | 48 | 0 | 0.0 | 1.0 | 0.01 | 0.52 | 0.52 | 96 | 1008.3 |
| 20260506134608 | 48 | 0 | 0.0 | 3.0 | 0.01 | 0.52 | 0.52 | 95 | 1008.2 |
| 20260506133036 | 48 | 256 | 0.0 | 2.0 | 0.01 | 0.52 | 0.52 | 95 | 1008.1 |
| 20260506131543 | 48 | 0 | 0.0 | 4.0 | 0.00 | 0.52 | 0.52 | 95 | 1008.1 |
| 20260506130034 | 49 | 240 | 0.0 | 4.0 | 0.01 | 0.52 | 0.52 | 95 | 1008.0 |
| 20260506124540 | 50 | 0 | 0.0 | 1.0 | 0.02 | 0.52 | 0.52 | 96 | 1006.7 |
| 20260506123044 | 50 | 0 | 0.0 | 0.0 | 0.06 | 0.52 | 0.52 | 95 | 1007.0 |
| 20260506121539 | 51 | 0 | 0.0 | 1.0 | 0.07 | 0.52 | 0.52 | 95 | 1007.2 |
| 20260506120035 | 51 | 34 | 1.0 | 4.0 | 0.07 | 0.51 | 0.51 | 95 | 1007.4 |
| 20260506114547 | 54 | 0 | 0.0 | 4.0 | 0.07 | 0.50 | 0.50 | 95 | 1007.2 |
| 20260506113042 | 56 | 0 | 0.0 | 3.0 | 0.07 | 0.46 | 0.46 | 95 | 1006.2 |
| 20260506111539 | 56 | 0 | 0.0 | 1.0 | 0.09 | 0.45 | 0.45 | 95 | 1006.0 |
| 20260506110038 | 55 | 221 | 0.0 | 1.0 | 0.12 | 0.44 | 0.44 | 95 | 1006.0 |
| 20260506104536 | 55 | 0 | 0.0 | 2.0 | 0.12 | 0.42 | 0.42 | 96 | 1006.1 |
| 20260506103036 | 55 | 0 | 0.0 | 0.0 | 0.12 | 0.39 | 0.39 | 96 | 1006.4 |
| 20260506101533 | 55 | 0 | 0.0 | 0.0 | 0.12 | 0.36 | 0.36 | 96 | 1006.3 |
| 20260506100039 | 55 | 0 | 0.0 | 1.0 | 0.11 | 0.32 | 0.32 | 96 | 1006.2 |
| 20260506094539 | 55 | 0 | 0.0 | 3.0 | 0.12 | 0.29 | 0.29 | 96 | 1006.1 |
| 20260506093037 | 55 | 0 | 0.0 | 1.0 | 0.13 | 0.27 | 0.27 | 96 | 1006.2 |
| 20260506091537 | 55 | 160 | 0.0 | 1.0 | 0.12 | 0.24 | 0.24 | 96 | 1006.4 |
| 20260506090041 | 56 | 0 | 0.0 | 4.0 | 0.10 | 0.20 | 0.20 | 96 | 1006.7 |
| 20260506084541 | 56 | 0 | 0.0 | 1.0 | 0.07 | 0.17 | 0.17 | 96 | 1006.9 |
| 20260506083042 | 56 | 83 | 0.0 | 3.0 | 0.04 | 0.14 | 0.14 | 96 | 1006.7 |
| 20260506081546 | 56 | 0 | 0.0 | 2.0 | 0.02 | 0.12 | 0.12 | 96 | 1006.7 |
| 20260506073041 | 56 | 0 | 0.0 | 1.0 | 0.02 | 0.11 | 0.10 | 95 | 1006.5 |
| 20260506071543 | 56 | 0 | 0.0 | 0.0 | 0.03 | 0.11 | 0.10 | 95 | 1006.8 |
| 20260506061540 | 57 | 0 | 0.0 | 0.0 | 0.04 | 0.13 | 0.07 | 94 | 1007.7 |
| 20260506044542 | 60 | 0 | 0.0 | 0.0 | 0.00 | 0.06 | 0.00 | 88 | 1009.0 |
| 20260506043040 | 60 | 0 | 0.0 | 0.0 | 0.00 | 0.06 | 0.00 | 85 | 1009.0 |
| 20260506041540 | 61 | 0 | 0.0 | 0.0 | 0.00 | 0.06 | 0.00 | 83 | 1008.6 |
| 20260506040039 | 61 | 0 | 0.0 | 0.0 | 0.00 | 0.06 | 0.00 | 82 | 1008.5 |
| 20260506034537 | 61 | 0 | 0.0 | 0.0 | 0.00 | 0.06 | 0.06 | 81 | 1008.1 |
| 20260506033036 | 62 | 0 | 0.0 | 0.0 | 0.00 | 0.06 | 0.06 | 80 | 1008.1 |
| 20260506031542 | 63 | 0 | 0.0 | 0.0 | 0.00 | 0.06 | 0.06 | 78 | 1008.1 |
| 20260506030040 | 63 | 297 | 0.0 | 2.0 | 0.00 | 0.06 | 0.06 | 74 | 1008.5 |
| 20260506024548 | 64 | 268 | 0.0 | 2.0 | 0.00 | 0.06 | 0.06 | 70 | 1008.3 |
| 20260506023038 | 64 | 0 | 0.0 | 0.0 | 0.00 | 0.06 | 0.06 | 67 | 1008.1 |
| 20260506021537 | 64 | 0 | 0.0 | 0.0 | 0.00 | 0.06 | 0.06 | 67 | 1008.0 |
| 20260506020048 | 64 | 0 | 0.0 | 1.0 | 0.00 | 0.06 | 0.06 | 65 | 1007.9 |
| 20260506014541 | 65 | 0 | 0.0 | 0.0 | 0.00 | 0.06 | 0.06 | 65 | 1008.0 |
| 20260506013039 | 65 | 0 | 0.0 | 2.0 | 0.00 | 0.06 | 0.06 | 63 | 1008.0 |
| 20260506011601 | 65 | 0 | 0.0 | 2.0 | 0.00 | 0.06 | 0.06 | 63 | 1007.8 |
| 20260506010038 | 66 | 0 | 0.0 | 4.0 | 0.00 | 0.06 | 0.06 | 61 | 1007.9 |
| 20260506004558 | 67 | 0 | 0.0 | 2.0 | 0.00 | 0.06 | 0.06 | 61 | 1007.9 |
| 20260506003043 | 67 | 0 | 0.0 | 5.0 | 0.00 | 0.06 | 0.06 | 61 | 1008.1 |
| 20260506001543 | 68 | 0 | 0.0 | 4.0 | 0.00 | 0.06 | 0.06 | 61 | 1008.1 |
| 20260506000106 | 68 | 124 | 1.0 | 7.0 | 0.00 | 0.06 | 0.06 | 59 | 1008.2 |
| 20260505234545 | 68 | 0 | 0.0 | 2.0 | 0.00 | 0.06 | 0.06 | 62 | 1007.9 |
| 20260505233037 | 69 | 0 | 0.0 | 4.0 | 0.00 | 0.06 | 0.06 | 61 | 1007.8 |
| 20260505231537 | 69 | 243 | 0.0 | 5.0 | 0.00 | 0.06 | 0.06 | 60 | 1007.8 |
| 20260505230100 | 69 | 0 | 0.0 | 3.0 | 0.00 | 0.06 | 0.06 | 62 | 1007.9 |
| 20260505224542 | 69 | 150 | 1.0 | 7.0 | 0.00 | 0.06 | 0.06 | 61 | 1007.9 |
| 20260505223040 | 70 | 0 | 0.0 | 2.0 | 0.00 | 0.06 | 0.06 | 63 | 1008.0 |
| 20260505221539 | 70 | 0 | 0.0 | 6.0 | 0.00 | 0.06 | 0.06 | 63 | 1008.2 |
| 20260505220040 | 70 | 226 | 0.0 | 4.0 | 0.00 | 0.06 | 0.06 | 63 | 1008.3 |
| 20260505214543 | 71 | 260 | 0.0 | 4.0 | 0.00 | 0.06 | 0.06 | 62 | 1008.2 |
| 20260505213042 | 71 | 101 | 1.0 | 6.0 | 0.00 | 0.06 | 0.06 | 61 | 1008.0 |
| 20260505211542 | 71 | 264 | 1.0 | 9.0 | 0.00 | 0.06 | 0.06 | 62 | 1008.1 |
| 20260505210039 | 72 | 0 | 0.0 | 5.0 | 0.00 | 0.06 | 0.06 | 62 | 1008.0 |
| 20260505204604 | 72 | 0 | 1.0 | 4.0 | 0.00 | 0.06 | 0.06 | 61 | 1008.1 |
| 20260505203042 | 72 | 0 | 0.0 | 2.0 | 0.00 | 0.06 | 0.06 | 62 | 1008.0 |
| 20260505201543 | 71 | 0 | 0.0 | 2.0 | 0.00 | 0.06 | 0.06 | 62 | 1008.0 |
| 20260505200039 | 71 | 0 | 0.0 | 2.0 | 0.00 | 0.06 | 0.06 | 60 | 1008.3 |
| 20260505194551 | 71 | 91 | 0.0 | 2.0 | 0.00 | 0.06 | 0.06 | 62 | 1008.4 |
| 20260505193039 | 71 | 227 | 0.0 | 4.0 | 0.00 | 0.06 | 0.06 | 61 | 1008.7 |
| 20260505191551 | 71 | 0 | 0.0 | 5.0 | 0.00 | 0.06 | 0.06 | 62 | 1008.8 |
| 20260505190043 | 71 | 238 | 1.0 | 5.0 | 0.00 | 0.06 | 0.06 | 60 | 1008.8 |
| 20260505184541 | 72 | 124 | 1.0 | 6.0 | 0.00 | 0.06 | 0.06 | 59 | 1008.7 |
| 20260505183040 | 74 | 82 | 1.0 | 7.0 | 0.00 | 0.06 | 0.06 | 56 | 1008.7 |
| 20260505181539 | 75 | 63 | 0.0 | 7.0 | 0.00 | 0.06 | 0.06 | 56 | 1008.7 |
| 20260505180045 | 73 | 82 | 0.0 | 7.0 | 0.00 | 0.06 | 0.06 | 58 | 1008.9 |
| 20260505174536 | 70 | 81 | 1.0 | 4.0 | 0.00 | 0.06 | 0.06 | 59 | 1009.0 |
| 20260505173034 | 71 | 70 | 1.0 | 7.0 | 0.00 | 0.06 | 0.06 | 60 | 1008.7 |
| 20260505171540 | 73 | 96 | 1.0 | 9.0 | 0.00 | 0.06 | 0.06 | 58 | 1008.5 |
| 20260505170038 | 74 | 262 | 0.0 | 7.0 | 0.00 | 0.06 | 0.06 | 56 | 1008.2 |
| 20260505164537 | 74 | 0 | 0.0 | 5.0 | 0.00 | 0.06 | 0.06 | 59 | 1008.2 |